Regional Weather Roundup
Issued by NWS Northern Indiana

Home | Current Version | Previous Version | Text Only | Print | Product List | Glossary Off
Versions: 1 2 3 4 5 6 7 8 9 10 11 12 13 14 15 16 17 18 19 20 21 22 23 24 25 26 27 28 29 30 31 32 33 34 35 36 37 38 39 40 41 42 43 44 45 46 47 48 49 50

000
ASUS43 KIWX 250310
RWRIWX

KIWX WEATHER ROUNDUP
NATIONAL WEATHER SERVICE NORTHERN INDIANA
1100 PM EDT SUN MAY 24 2015

NOTE: "FAIR" INDICATES FEW OR NO CLOUDS BELOW 12,000 FEET WITH NO
SIGNIFICANT WEATHER AND/OR OBSTRUCTIONS TO VISIBILITY.

* THESE STATIONS ARE NOT UNDER NWS QUALITY CONTROL. THEY ALSO MAY NOT
  REPORT WEATHER SUCH AS PRECIPITATION OR FOG.

INZ001>027-250400-
NORTHERN INDIANA

CITY           SKY/WX    TMP DP  RH WIND       PRES   REMARKS
GARY*          MOCLDY    79  61  53 SE14      29.95S
VALPARAISO     PTCLDY    75  59  57 S12       29.98S
MICHIGAN CITY* PTCLDY    75  55  50 S10G16    29.97F
LAPORTE*       PTCLDY    77  59  53 S10       29.99S
KNOX*          PTCLDY    75  55  50 S15G21    29.99S
SOUTH BEND     PTCLDY    76  54  46 S9        30.01R
GOSHEN         PTCLDY    74  54  49 S15       30.02S
MONTICELLO*    CLEAR     75  61  60 S10G16    30.00S
LOGANSPORT*    CLEAR     73  52  46 S12       30.04S
ROCHESTER*     PTCLDY    75  55  50 S7        30.03S
WARSAW*        CLEAR     73  54  49 S7        30.04R
ANGOLA*        CLEAR     73  55  53 S9        30.06R
FORT WAYNE     MOCLDY    73  54  51 S13       30.07R
HUNTINGTON*    CLEAR     73  54  51 S8        30.06R
PERU/GRISSOM   CLEAR     73  57  58 S10       30.03R
MARION*        CLEAR     73  53  49 S10       30.08R

$$
INZ028>050-250400-
CENTRAL INDIANA

CITY           SKY/WX    TMP DP  RH WIND       PRES   REMARKS
LAFAYETTE      CLEAR     74  60  61 S8        30.01R
KOKOMO*        CLEAR     73  55  53 S14       30.05R
MUNCIE*        CLEAR     74  54  49 S8        30.08R
INDIANAPOLIS   MOCLDY    74  57  55 S13       30.04S

$$
MIZ043>046-050>051-056>058-064>065-071>073-077>080-250400-
SOUTHWEST LOWER MICHIGAN

CITY           SKY/WX    TMP DP  RH WIND       PRES   REMARKS
BATTLE CREEK   CLOUDY    72  56  57 SE8       30.03F
BENTON HARBOR  PTCLDY    74  55  51 S9        29.97S
COLDWATER*     MOCLDY    72  52  49 S5        30.05R
HILLSDALE*     PTCLDY    73  53  48 S5        30.07S
HOLLAND        CLOUDY    68  58  70 E8        29.98F
GRAND RAPIDS   CLOUDY    67  57  70 E12       30.01F
KALAMAZOO      MOCLDY    74  54  49 S7        30.02S
STURGIS*       PTCLDY    72  54  53 S8        30.03S
THREE RIVERS*  FAIR      73  53  49 S9        30.03S

$$
OHZ001>008-015>018-024>025-250400-
NORTHWEST OHIO

CITY           SKY/WX    TMP DP  RH WIND       PRES   REMARKS
WAUSEON*       FAIR      70  54  56 S10       30.08R
DEFIANCE       CLEAR     73  52  47 S6        30.07S
FINDLAY        CLEAR     70  51  51 SE7       30.10S
TOLEDO EXPRESS PTCLDY    69  51  52 S5        30.08F
TOLEDO METCALF PTCLDY    68  50  52 SE9       30.09S
LIMA           CLEAR     71  50  47 S8        30.11S

$$
AND FOR LAKE MICHIGAN COASTAL AND OPEN LAKE BUOY OBSERVATIONS

STATION/POSITION TEMP    WIND        PRES    VSBY  WAVE
                 AIR SEA DIR/SP/G                  HT/PER
                 (F)     (DEG/KT/KT) (MB)    (MI)  (FT/S)
CALUMET HARBOR    75     160/  8/ 15   N/A
MICHIGAN CITY     77     150/ 10/ 14   N/A
BURNS HARBOR      77     180/  9/ 16 1014.9S
SAINT JOSEPH      75     160/  3/  8 1015.2R
SOUTH LAKE BUOY   48 38   90/ 12/ 12 1014.2F         1
4 MI NW BRIDGMAN  68 56  200/ 12/ 14   N/A           1
MICHIGAN CITY     70 55  180/ 12/ 16   N/A           1

$$
&&


USA.gov is the U.S. government's official web portal to all federal, state and local government web resources and services.